This demonstration page uses our WeatherBlox Daily Observations layout. Learn more.

Left ArrowRight Arrow

44.89941, -97.11507

Hourly Observations for September 12, 2018

Temp ( °F °C ) Dew Point ( °F °C ) Humidity (%) Winds ( mph kmh ) Pressure ( in mb ) Visibility ( mi km ) Precip ( " mm )
12:53 am 00:53 Mostly Cloudy 71 21.7 63 17.2 76 76 SSW 8 13 29.84 1011 10 16 0.00 0.00
1:53 am 01:53 Mostly Cloudy 70 21.1 63 17.2 79 79 Calm 29.85 1011 10 16 0.00 0.00
2:53 am 02:53 Cloudy 70 21.1 63 17.2 79 79 VRB 5 7 29.86 1011 10 16 0.00 0.00
3:53 am 03:53 Cloudy 69 20.6 63 17.2 81 81 ENE 5 7 29.87 1012 10 16 0.00 0.00
4:53 am 04:53 Partly Cloudy 68 20 63 17.2 84 84 ESE 3 6 29.87 1012 10 16 0.00 0.00
5:45 am 05:45 Mostly Cloudy 66 18.9 63 17.2 90 90 E 5 7 29.88 1012 10 16 0.00 0.00
5:53 am 05:53 Mostly Cloudy 66 18.9 63 17.2 90 90 ESE 3 6 29.89 1012 10 16 0.00 0.00
6:27 am 06:27 Cloudy 65 18.3 60 15.6 84 84 E 6 9 29.91 1013 10 16 0.00 0.00
6:53 am 06:53 Mostly Clear 63 17.2 59 15 87 87 ENE 6 9 29.90 1013 10 16 0.00 0.00
7:53 am 07:53 Sunny 63 17.2 58 14.4 84 84 E 6 9 29.91 1013 10 16 0.00 0.00
8:53 am 08:53 Sunny 63 17.2 58 14.4 84 84 E 5 7 29.92 1013 10 16 0.00 0.00
9:53 am 09:53 Mostly Sunny 68 20 63 17.2 84 84 SSE 9 15 29.91 1013 10 16 0.00 0.00
10:53 am 10:53 Sunny 72 22.2 64 17.8 76 76 S 14 22 29.91 1013 10 16 0.00 0.00
11:53 am 11:53 Sunny 77 25 65 18.3 66 66 S 14 22 29.90 1013 10 16 0.00 0.00
12:53 pm 12:53 Sunny 79 26.1 64 17.8 60 60 S 17 28 29.88 1012 10 16 0.00 0.00
1:53 pm 13:53 Sunny 80 26.7 64 17.8 58 58 SSE 17 28 29.87 1012 10 16 0.00 0.00
2:53 pm 14:53 Sunny 82 27.8 61 16.1 49 49 SSE 22 35 29.85 1011 10 16 0.00 0.00
3:53 pm 15:53 Sunny 83 28.3 58 14.4 43 43 S 24 39 29.84 1011 10 16 0.00 0.00
4:53 pm 16:53 Sunny 82 27.8 59 15 46 46 SSE 21 33 29.83 1010 10 16 0.00 0.00
5:53 pm 17:53 Sunny 80 26.7 60 15.6 51 51 S 23 37 29.83 1010 10 16 0.00 0.00
6:53 pm 18:53 Sunny 78 25.6 61 16.1 56 56 SSE 18 30 29.84 1010 10 16 0.00 0.00
7:53 pm 19:53 Clear 74 23.3 61 16.1 64 64 SSE 15 24 29.83 1010 10 16 0.00 0.00
8:53 pm 20:53 Clear 71 21.7 60 15.6 68 68 SSE 16 26 29.84 1011 10 16 0.00 0.00
9:53 pm 21:53 Clear 72 22.2 61 16.1 68 68 SSE 17 28 29.84 1011 10 16 0.00 0.00
10:53 pm 22:53 Clear 69 20.6 61 16.1 76 76 SSE 17 28 29.85 1011 10 16 0.00 0.00
11:53 pm 23:53 Clear 68 20 61 16.1 78 78 SSE 17 28 29.85 1011 10 16 0.00 0.00

Powered by AerisWeather